User: anonymous   Login
Location: Irma
(52.9170°N, 111.2330°W)
Time: 06:30:13
(UTC-06:00)
Language:

deb Chang Zheng 4 - Orbit

View from above orbital plane
View from above orbital plane
View from above satellite
View from above satellite

Ground track
Ground track

The orbit data is extracted from the following two-line orbital elements,

1 20847U 90081K   15149.77562175  .00004842  00000-0  73663-3 0  9995
2 20847 098.5824 336.2660 0017931 288.7122 199.0616 14.74385475295114
Epoch (UTC): 29 May 2015 18:36:53
Eccentricity: 0.0017931
inclination: 98.5824°
perigee height: 634 km
apogee height: 660 km
right ascension of ascending node: 336.2660°
argument of perigee: 288.7122°
revolutions per day: 14.74385475
mean anomaly at epoch: 199.0616°
orbit number at epoch: 29511

The dashed part of the orbit path shows where the satellite is in the earth's shadow,  

DLR